Location: Newark
(33.1119°N, 7.4058°W)
Time: 20:17:31
(UTC+00:00)

N. Korean satellite - Visible Passes

Search period start: 20 November 2019 00:00
Search period end: 30 November 2019 00:00
Orbit: 456 x 506 km, 97.2° (Epoch: 20 November)

Date Brightness Start Highest point End Pass type
(mag) Time Alt. Az. Time Alt. Az. Time Alt. Az.
20 Nov 8.7 05:47:38 10° NE 05:50:55 30° E 05:54:08 10° SSE visible
20 Nov 7.2 17:51:26 10° S 17:55:00 63° W 17:58:39 10° NNW visible
21 Nov 10.0 05:23:27 10° ENE 05:25:24 14° E 05:27:21 10° SE visible
22 Nov 6.6 06:29:53 10° N 06:33:31 60° WNW 06:37:04 10° SSW visible
22 Nov 9.9 18:35:27 10° SW 18:37:43 16° W 18:40:00 10° NW visible
23 Nov 7.4 06:04:33 10° NNE 06:08:09 54° E 06:11:40 10° S visible
23 Nov 8.6 18:08:53 10° SSW 18:12:13 34° W 18:15:36 10° NNW visible
24 Nov 9.2 05:39:42 10° NE 05:42:41 23° E 05:45:36 10° SSE visible
25 Nov 10.2 05:16:21 10° E 05:17:08 11° E 05:17:55 10° ESE visible
26 Nov 6.5 06:21:40 10° N 06:25:18 81° W 06:28:52 10° SSW visible
26 Nov 9.6 18:26:41 10° SW 18:29:27 20° W 18:32:14 10° NW visible
27 Nov 8.0 05:56:27 10° NNE 05:59:53 40° E 06:03:15 10° S visible
27 Nov 8.0 18:00:27 10° S 18:03:58 45° W 18:07:32 10° NNW visible
28 Nov 9.6 05:31:50 10° NE 05:34:23 18° E 05:36:53 10° SE visible
29 Nov 6.9 06:38:57 10° N 06:42:23 43° WNW 06:45:45 10° SSW visible
29 Nov 10.1 18:45:14 10° WSW 18:46:41 12° W 18:48:08 10° WNW visible
